Location: Bidwell Hollow
(37.7387°N, 90.1707°W)
Time: 18:11:56
(UTC+00:00)

Altair - Pass Details

Date: 15 May 2026
Orbit: 1501 x 1682 km, 47.2° (Epoch: 9 June)

Event Time Altitude Azimuth Distance (km) Brightness Sun altitude
Exits shadow 08:44:21 14° 177° (S) 3,488 9.0 -21.0°
Maximum altitude 08:50:52 29° 128° (SE) 2,680 8.8 -20.2°
Drops below altitude 10° 08:58:55 10° 73° (ENE) 3,919 10.5 -19.0°
Sets 09:02:40 0° 63° (ENE) 4,924 11.6 -18.5°
